Home > Weather > Kemi > Past weeks

Flag for Finland Past Weather in Kemi, Finland — Yesterday and Last 2 Weeks

Now
61 °F

Sunny.


Feels Like: 61 °F
Forecast: 60 / 66 °F
Wind: 6 mph from East

Location: Kemi Airport

Current Time: Jul 1, 2016 at 12:30:43 AM

Latest Report: Jun 30, 2016 at 11:50 PM


Visibility: 10 mi

Pressure: 29.83 "Hg

Humidity: 94%

Dew Point: 59 °F

Location of KemiLocation

Past Weather in Kemi — Graph

°F

Kemi Temperature Yesterday

Maximum temperature yesterday: 73 °F (at 4:20 PM)
Minimum temperature yesterday: 54 °F (at 2:20 AM)
Average temperature yesterday: 63 °F

High & Low Weather Summary for the Past Weeks

 TemperatureHumidityPressure
High73 °F (Jun 30, 4:20 PM)100% (Jun 17, 8:50 AM)30.15 "Hg (Jun 17, 8:50 AM)
Low43 °F (Jun 23, 2:50 AM)33% (Jun 16, 10:20 AM)29.33 "Hg (Jun 18, 8:20 PM)
Average59 °F79%29.86 "Hg
* Reported Jun 15 11:20 PM — Jun 30 11:20 PM, Kemi, Weather by CustomWeather, © 2016

Note: Actual official high and low records may vary slightly from our data, if they occured in-between our weather recording intervals... More about our weather records

Advertising

Kemi Weather History for the Previous 24 Hours

Scroll right to see more
 ConditionsComfort  
Time TempWeatherWind HumidityBarometerVisibility
11:20 PM
Thu, Jun 30
61 °FSprinkles. Partly sunny.6 mph94%29.83 "HgN/A
10:50 PM63 °FSprinkles. Partly sunny.8 mph88%29.83 "HgN/A
10:20 PM63 °FSunny.7 mph88%29.83 "Hg10 mi
9:50 PM63 °FSunny.7 mph88%29.83 "Hg10 mi
9:20 PM63 °FSunny.6 mph88%29.83 "Hg10 mi
8:50 PM63 °FPassing clouds.6 mph88%29.86 "HgN/A
8:20 PM63 °FSunny.7 mph88%29.86 "Hg10 mi
7:50 PM64 °FSunny.3 mph83%29.86 "Hg10 mi
7:20 PM63 °FPartly sunny.No wind94%29.86 "HgN/A
6:50 PM59 °FSprinkles. Partly sunny.3 mph100%29.86 "HgN/A
6:20 PM59 °FThunderstorms. Partly sunny.3 mph94%29.89 "HgN/A
5:50 PM61 °FThunderstorms. Broken clouds.14 mph88%29.89 "HgN/A
5:20 PM72 °FThundershowers. Broken clouds.6 mph57%29.86 "HgN/A
4:50 PM73 °FPartly sunny.7 mph50%29.86 "HgN/A
4:20 PM73 °FPassing clouds.5 mph57%29.86 "HgN/A
3:50 PM72 °FSunny.3 mph61%29.86 "Hg10 mi
3:20 PM70 °FPassing clouds.5 mph64%29.89 "HgN/A
2:50 PM70 °FPassing clouds.5 mph60%29.89 "HgN/A
2:20 PM70 °FPassing clouds.7 mph69%29.89 "HgN/A
1:50 PM70 °FPassing clouds.7 mph69%29.89 "HgN/A
1:20 PM68 °FPassing clouds.8 mph78%29.89 "HgN/A
12:50 PM68 °FPassing clouds.8 mph78%29.92 "HgN/A
12:20 PM68 °FPassing clouds.6 mph78%29.92 "HgN/A
11:50 AM66 °FPassing clouds.7 mph83%29.92 "HgN/A
11:20 AM66 °FBroken clouds.8 mph83%29.92 "HgN/A
10:50 AM68 °FPartly sunny.2 mph78%29.92 "HgN/A
10:20 AM64 °FPartly sunny.5 mph83%29.92 "HgN/A
9:50 AM63 °FLow clouds.No wind94%29.92 "HgN/A
9:20 AM63 °FLow clouds.No wind88%29.92 "HgN/A
8:50 AM64 °FPartly sunny.No wind88%29.92 "HgN/A
8:20 AM63 °FLow clouds.1 mph88%29.92 "HgN/A
7:50 AM61 °FMostly cloudy.No wind94%29.92 "HgN/A
7:20 AM61 °FSunny.2 mph94%29.92 "Hg10 mi
6:50 AM59 °FBroken clouds.No wind94%29.92 "HgN/A
6:20 AM59 °FBroken clouds.2 mph94%29.92 "HgN/A
5:50 AM57 °FPartly sunny.No wind100%29.92 "HgN/A
5:20 AM57 °FPartly sunny.1 mph100%29.92 "HgN/A
4:50 AM57 °FPartly sunny.2 mph100%29.92 "HgN/A
4:20 AM57 °FSunny.1 mph94%29.92 "Hg10 mi
3:50 AM55 °FFog.2 mph100%29.92 "Hg3 mi
3:20 AM55 °FPartly sunny.3 mph94%29.92 "Hg4 mi
2:20 AM54 °FPartly cloudy.No wind100%29.92 "Hg1 mi
1:50 AM55 °FScattered clouds.No wind94%29.92 "Hg0 mi
1:20 AM55 °FLight fog.No wind100%29.92 "Hg4 mi
12:50 AM57 °FPartly sunny.No wind94%29.92 "Hg0 mi
12:20 AM57 °FScattered clouds.No wind100%29.92 "Hg0 mi
Weather by CustomWeather, © 2016

See weather overviewHow to use our weather pages